Погода Красный Чикой

Погода Красный Чикой : погода сейчас, прогноз погоды и архив. Всё, что Вы хотите узнать о погоде Красный Чикой!

Хотите узнать прогноз погоды Красный Чикой? Тогда Вам сюда: Погода Красный Чикой

Поиск расширенной информации на нашем сайте:

Другие новости

Новости СМИ2

Главная страница сайта

Новости сайта

03.07.2017

Напоминаем, что на нашем специализированном сайте Метеоцентр.Азия вы можете получить высокодетализированные автоматические прогнозы погоды по пунктам России, СНГ и мира в авиационном формате (включающие направление и скорость ветра, видимость, явления погоды, количество и форму облачности, нижнюю и верхнюю границу облачности).

Рекомендуем: Янукович історія Вінниці www.imsu-vinnycja.com.

Погода Красный Чикой - сегодня

Время (UTC), дата Ветер
(°,м/с) 
Видим.   Явления Облачность Т
(°С)
Тd
(°С)
f(%) Тe
(°С)
Pmin
(гПа)
dP
(гПа)
Po
(мм)
O2
(г/м3)
Тmin Tmax R s Состояние
почвы
09 14.08.18 070 (В) 20000 м    10/0 средняя, верхняя 
[Ac lent|Ci fib]
+29.1 +16.4 46 +43  1004.1  -0.8  691  248           
15 14.08.18 360 (С) 20000 м    4/0 верхняя 
[Ci fib]
+19.3 +15.2 77 +32  1008.6  1.3  692  257           
18 14.08.18 050 (СВ) 20000 м    10/0 средняя, верхняя 
[Ac As|Ci fib]
+18.4 +14.4 78 +29  1010  0.9  693  259           
21 14.08.18 050 (СВ) 20000 м    10/3 1000 м средняя, верхняя 
[Sc|Ac lent|Ci fib]
+17.4 +13.6 78 +26  1011  0.6  693  260           
00 15.08.18 050 (СВ) 20000 м    10/4 1000 м средняя, верхняя 
[Sc|Ac lent|Ci sp]
+18.9 +13.9 73 +29  1011.9  1.3  694  259  +17        сухая 
03 15.08.18 170 (Ю) 20000 м    10/3 1000 м средняя, верхняя 
[Cu hum|Ac trans|Ci sp]
+23.7 +15.9 62 +36  1011.2  0.7  695  254           
06 15.08.18 240 (ЮЗ) 20000 м    10/4 1000 м кучево-дожд., средняя, верхняя 
[Cb cap|Ac trans|Cs]
+26.7 +14.5 47 +37  1009.9  -0.3  695  252           
09 15.08.18 180 (Ю) 20000 м  {ливн. осадки}  10/5 1000 м кучево-дожд., средняя 
[Cb cap|Ac As]
+19.8 +12 61 +27  1013.9  1.6  696  259           
12 15.08.18 тихо ()   20000 м  {ливн. осадки}  10/6 1000 м кучево-дожд., средняя 
[Cb cap|Ac As]
+16.2 +15.1 93 +27  1015.9  0.9  697  262    +26.9     
15 15.08.18 тихо ()   10 км  слаб. дождь  10/8 1000 м средняя 
[Sc diur, vesp|Ac As]
+15.3 +14.9 97 +26  1016.4  0.2  697  263           
18 15.08.18 050 (СВ) 10 км  слаб. дождь  10/8 1000 м средняя 
[Sc diur, vesp|As op]
+14.3 +13.9 97 +24  1015.5  -1.1  696  263           
21 15.08.18 050 (СВ) 10 км  слаб. дождь  10/6 1000 м средняя 
[Sc diur, vesp|As op]
+13.8 +13.5 98 +22  1014.7  -0.9  695  264           
00 16.08.18 050 (СВ) 10 км  осадки на расстоянии{дождь}  10/6 1000 м кучево-дожд., средняя, верхняя 
[Cb cap|Ac lent|Ci fib]
+14.1 +13.7 97 +23  1013.7  -0.8  695  263  +13.7      влажная 
03 16.08.18 200 (Ю) 20000 м    10/8 1000 м кучево-дожд., средняя, верхняя 
[Cb cap|Ac lent|Ci fib]
+16.8 +13.9 83 +27  1011.9  -0.9  694  260           
12 16.08.18 290 (З) 20000 м  {ливн. осадки}  8/4 1000 м средняя, верхняя 
[Sc diur, vesp|Ac trans|Ci sp]
+14.1 +9.2 72 +17  1015.9  0.9  696  265    +18     
15 16.08.18 320 (СЗ) 20000 м    3/0 верхняя 
[Ci fib]
+9.1 +7.8 92 +9  1018.1  0.5  696  270           
18 16.08.18 330 (СЗ) 10 км  туман местами  ясно 
+8.4 +7.6 95 +8  1017.9  -0.4  696  271           
21 16.08.18 320 (СЗ) 4000 м  дымка  10/10 600 м 
[St]
+8.2 +7.6 96 +8  1017.5  -0.4  696  271           
00 17.08.18 260 (З) 10 км    10/10 600 м 
[St]
+10.4 +9 91 +13  1016.7  696  268  +7.1        влажная 
03 17.08.18 210 (ЮЗ) 20000 м    4/4 1000 м 
[Cu hum]
+16 +10.7 71 +21  1013  -1.7  695  262           
06 17.08.18 240 (ЮЗ) 20000 м    6/6 1000 м 
[Cu med, cong]
+21.3 +11.5 54 +26  1008.4  -2.7  692  257           
09 17.08.18 230 (ЮЗ) 20000 м    8/6 1000 м верхняя 
[Cu hum|Ci fib]
+21.4 +9.1 45 +23  1007.2  -1.1  692  257           
15 17.08.18 250 (З) 20000 м    ясно 
+10.9 +9 88 +13  1010.6  0.2  692  266           
18 17.08.18 тихо ()   20000 м    ясно 
+7.8 +7.2 96 +8  1010.9  -0.7  691  269           
21 17.08.18 260 (З) 4000 м  туман местами  ясно 
+6.2 +5.9 98 +7  1011.6  0.1  691  271           
Время (UTC), дата Ветер
(°,м/с) 
Видим.   Явления Облачность Т
(°С)
Тd
(°С)
f(%) Тe
(°С)
Pmin
(гПа)
dP
(гПа)
Po
(мм)
O2
(г/м3)
Тmin Tmax R s Состояние
почвы

Для получения пояснительной информации подведите курсор к названию столбца.

ПОГОДА Красный Чикой - архив

Всё, что Вы хотите узнать о погоде Красный Чикой - удобно и подробно!

Выберите нужную дату (начиная с 1 января 2015* года) и нажмите кнопку "Найти".
Будут отображены архивные сводки погоды по пункту Красный Чикой, начиная с указанной даты.


Отображать данные в формате CSV (для использования в таблицах Excel)


Внимание! Наш архив погоды предназначен исключительно для личного некоммерческого использования в познавательных целях. Если Вам необходимы официальные справки о состоянии погоды (для производственных, юридических, коммерческих и т.п. целей), обращайтесь в органы Росгидромета.

*Примечание: данная дата относится к архиву по метеостанциям СССР (Россия, СНГ, Балтия).
Архив по метеостанциям Зарубежной Европы и Азии (кроме Китая) хранится 10 дней, по другим регионам земного шара (Китай, Африка, Америка, Австралия, Океания) - 1 день.

Красный Чикой - район местоположения метеостанции


Название, широта, долгота, высота метеостанции:
Красный Чикой 50.4°ш. 108.8°д. 771 м над ур. моря [Российская Федерация]

Дополнительная информация

В oтличие oт бoльшинства пoгoдных сайтoв мы публикуем пoдрoбную метеoинфoрмацию в детальнoм прoфессиoнальнoм фoрмате.

Характеристики температуры и влажнoсти вoздуха измеряются на высoте 2 м в тени вдали oт зданий и деревьев.
Скoрoсть ветра измеряется на высoте 10 м (на урoвне рoста челoвека скoрoсть ветра ниже в 1.5-2 раза). Если метеoстанция нахoдится в гoрoде или в лесу, тo скoрoсть ветра занижена на 2-4 м/с пo сравнению с oткрытым местoм. Скoрoсть ветра над акватoриями крупных рек и oзёр, а также на вершинах хoлмoв на 2-5 м/с выше, чем в oбычных услoвиях.
Атмoсфернoе давление в разных тoчках местнoсти мoжет значительнo oтличаться oт давления на метеoстанции, в зависимoсти oт услoвий рельефа (при пoдъёме на 10 м давление пoнижается примернo на 1 мм рт.ст.).